| time (UTC) | temp F | wind direction | speed MPH | gust MPH | rain 1hr in | rain 24hr in | rain mn in | humidity % | barometer mb |
| 20260903104939 | 66 | 55 | 8.0 | 24.0 | 0.00 | 0.00 | 0.00 | 91 | 947.1 |
| 20260903104438 | 66 | 66 | 9.0 | 20.0 | 0.00 | 0.00 | 0.00 | 92 | 947.4 |
| 20260903102905 | 67 | 57 | 9.0 | 23.0 | 0.00 | 0.00 | 0.00 | 93 | 948.0 |
| 20260903102404 | 67 | 60 | 8.0 | 23.0 | 0.00 | 0.00 | 0.00 | 93 | 947.6 |
| 20260903101347 | 67 | 68 | 9.0 | 21.0 | 0.00 | 0.00 | 0.00 | 95 | 947.8 |
| 20260903100846 | 67 | 61 | 7.0 | 16.0 | 0.00 | 0.00 | 0.00 | 96 | 947.7 |
| 20260903100345 | 67 | 54 | 8.0 | 20.0 | 0.00 | 0.00 | 0.00 | 96 | 947.7 |
| 20260903095845 | 67 | 63 | 7.0 | 20.0 | 0.00 | 0.00 | 0.00 | 96 | 947.8 |
| 20260903095344 | 67 | 70 | 7.0 | 18.0 | 0.00 | 0.00 | 0.00 | 96 | 948.1 |
| 20260903094843 | 67 | 85 | 10.0 | 22.0 | 0.00 | 0.00 | 0.00 | 96 | 948.0 |
| 20260903092238 | 68 | 61 | 7.0 | 16.0 | 0.00 | 0.00 | 0.00 | 96 | 947.9 |
| 20260903091737 | 68 | 77 | 6.0 | 16.0 | 0.00 | 0.00 | 0.00 | 97 | 948.0 |
| 20260903091236 | 67 | 67 | 7.0 | 19.0 | 0.00 | 0.00 | 0.00 | 96 | 948.1 |
| 20260903090735 | 67 | 71 | 8.0 | 19.0 | 0.00 | 0.00 | 0.00 | 97 | 947.9 |
| 20260903085201 | 68 | 68 | 8.0 | 23.0 | 0.00 | 0.00 | 0.00 | 97 | 948.0 |
| 20260903084700 | 68 | 68 | 9.0 | 23.0 | 0.00 | 0.00 | 0.00 | 97 | 947.7 |
| 20260903084200 | 68 | 55 | 6.0 | 14.0 | 0.00 | 0.00 | 0.00 | 96 | 947.7 |
| 20260903083658 | 68 | 56 | 5.0 | 19.0 | 0.00 | 0.00 | 0.00 | 96 | 948.0 |
| 20260903083157 | 67 | 69 | 9.0 | 19.0 | 0.00 | 0.00 | 0.00 | 97 | 947.7 |
| 20260903082657 | 67 | 70 | 6.0 | 22.0 | 0.00 | 0.00 | 0.00 | 96 | 947.9 |
| 20260903082155 | 67 | 71 | 7.0 | 22.0 | 0.00 | 0.00 | 0.00 | 96 | 947.8 |
| 20260903081654 | 68 | 75 | 6.0 | 18.0 | 0.00 | 0.00 | 0.00 | 96 | 948.2 |
| 20260903081154 | 68 | 66 | 8.0 | 19.0 | 0.00 | 0.00 | 0.00 | 97 | 948.2 |
| 20260903080653 | 68 | 73 | 6.0 | 19.0 | 0.00 | 0.00 | 0.00 | 97 | 948.0 |
| 20260903075635 | 68 | 74 | 8.0 | 19.0 | 0.00 | 0.00 | 0.00 | 97 | 948.1 |
| 20260903074619 | 68 | 78 | 6.0 | 15.0 | 0.00 | 0.00 | 0.00 | 97 | 948.3 |
| 20260903074118 | 68 | 73 | 6.0 | 15.0 | 0.00 | 0.00 | 0.00 | 97 | 948.3 |
| 20260903073101 | 68 | 84 | 6.0 | 20.0 | 0.00 | 0.00 | 0.00 | 97 | 948.2 |
| 20260903072600 | 68 | 67 | 7.0 | 20.0 | 0.00 | 0.00 | 0.00 | 97 | 947.9 |
| 20260903072059 | 68 | 73 | 8.0 | 20.0 | 0.00 | 0.00 | 0.00 | 97 | 948.0 |
| 20260903070526 | 68 | 53 | 5.0 | 19.0 | 0.00 | 0.00 | 0.00 | 97 | 948.0 |
| 20260903070025 | 68 | 55 | 5.0 | 19.0 | 0.00 | 0.00 | 0.00 | 97 | 947.9 |
| 20260903065523 | 68 | 63 | 6.0 | 15.0 | 0.00 | 0.00 | 0.00 | 97 | 948.1 |
| 20260903064506 | 68 | 46 | 8.0 | 15.0 | 0.00 | 0.00 | 0.00 | 96 | 948.1 |
| 20260903064005 | 68 | 50 | 6.0 | 18.0 | 0.00 | 0.00 | 0.00 | 96 | 947.7 |
| 20260903063504 | 68 | 57 | 8.0 | 18.0 | 0.00 | 0.00 | 0.00 | 96 | 947.6 |
| 20260903063002 | 68 | 61 | 8.0 | 18.0 | 0.00 | 0.00 | 0.00 | 96 | 948.0 |
| 20260903062501 | 68 | 51 | 7.0 | 18.0 | 0.00 | 0.00 | 0.00 | 96 | 947.6 |
| 20260903062000 | 68 | 67 | 9.0 | 18.0 | 0.00 | 0.00 | 0.00 | 96 | 947.7 |
| 20260903061459 | 68 | 66 | 6.0 | 18.0 | 0.00 | 0.00 | 0.00 | 96 | 947.8 |
| 20260903060958 | 68 | 56 | 6.0 | 14.0 | 0.00 | 0.00 | 0.00 | 95 | 947.6 |
| 20260903060457 | 68 | 64 | 6.0 | 14.0 | 0.00 | 0.00 | 0.00 | 95 | 947.2 |
| 20260903055956 | 68 | 54 | 6.0 | 14.0 | 0.00 | 0.00 | 0.00 | 94 | 947.4 |
| 20260903055455 | 69 | 62 | 6.0 | 14.0 | 0.00 | 0.00 | 0.00 | 95 | 947.4 |
| 20260903054954 | 69 | 67 | 7.0 | 12.0 | 0.00 | 0.00 | 0.00 | 95 | 947.5 |
| 20260903054453 | 69 | 66 | 6.0 | 16.0 | 0.00 | 0.00 | 0.00 | 95 | 947.3 |
| 20260903053952 | 69 | 61 | 6.0 | 16.0 | 0.00 | 0.00 | 0.00 | 95 | 947.3 |
| 20260903053451 | 69 | 57 | 5.0 | 14.0 | 0.00 | 0.00 | 0.00 | 94 | 947.4 |
| 20260903052949 | 68 | 67 | 4.0 | 15.0 | 0.00 | 0.00 | 0.00 | 95 | 947.3 |
| 20260903052448 | 68 | 63 | 4.0 | 15.0 | 0.00 | 0.00 | 0.00 | 94 | 947.4 |
| 20260903051947 | 68 | 64 | 4.0 | 13.0 | 0.00 | 0.00 | 0.00 | 94 | 947.2 |
| 20260903051446 | 68 | 54 | 5.0 | 14.0 | 0.00 | 0.00 | 0.00 | 94 | 947.2 |
| 20260903050945 | 68 | 63 | 7.0 | 15.0 | 0.00 | 0.00 | 0.00 | 94 | 947.6 |
| 20260903045928 | 69 | 71 | 5.0 | 14.0 | 0.00 | 0.00 | 0.00 | 93 | 947.5 |
| 20260903044355 | 69 | 68 | 6.0 | 16.0 | 0.00 | 0.00 | 0.00 | 91 | 947.3 |
| 20260903043854 | 69 | 50 | 5.0 | 14.0 | 0.00 | 0.00 | 0.00 | 90 | 947.0 |
| 20260903043353 | 69 | 58 | 4.0 | 14.0 | 0.00 | 0.00 | 0.00 | 90 | 947.2 |
| 20260903042852 | 69 | 55 | 5.0 | 14.0 | 0.00 | 0.00 | 0.00 | 89 | 947.1 |
| 20260903042351 | 70 | 53 | 6.0 | 14.0 | 0.00 | 0.00 | 0.00 | 90 | 947.1 |
| 20260903041850 | 70 | 62 | 5.0 | 13.0 | 0.00 | 0.00 | 0.00 | 90 | 946.9 |
| 20260903040833 | 70 | 46 | 6.0 | 13.0 | 0.00 | 0.00 | 0.00 | 89 | 946.9 |
| 20260903040332 | 70 | 43 | 5.0 | 13.0 | 0.00 | 0.00 | 0.00 | 89 | 946.6 |
| 20260903035831 | 71 | 50 | 6.0 | 15.0 | 0.00 | 0.00 | 0.00 | 89 | 946.6 |
| 20260903034814 | 71 | 51 | 5.0 | 14.0 | 0.00 | 0.00 | 0.00 | 88 | 946.5 |
| 20260903034313 | 71 | 53 | 6.0 | 13.0 | 0.00 | 0.00 | 0.00 | 88 | 946.4 |
| 20260903033812 | 72 | 49 | 6.0 | 14.0 | 0.00 | 0.00 | 0.00 | 87 | 946.8 |
| 20260903033311 | 72 | 57 | 6.0 | 16.0 | 0.00 | 0.00 | 0.00 | 86 | 946.7 |
| 20260903032810 | 72 | 53 | 6.0 | 16.0 | 0.00 | 0.00 | 0.00 | 86 | 946.6 |
| 20260903032309 | 72 | 49 | 7.0 | 14.0 | 0.00 | 0.00 | 0.00 | 85 | 946.6 |
| 20260903031808 | 72 | 53 | 6.0 | 15.0 | 0.00 | 0.00 | 0.00 | 85 | 946.2 |
| 20260903030751 | 73 | 48 | 6.0 | 15.0 | 0.00 | 0.00 | 0.00 | 85 | 946.6 |
| 20260903025734 | 73 | 54 | 6.0 | 15.0 | 0.00 | 0.00 | 0.00 | 86 | 946.3 |
| 20260903025233 | 73 | 46 | 8.0 | 15.0 | 0.00 | 0.00 | 0.00 | 84 | 946.6 |
| 20260903024216 | 73 | 56 | 7.0 | 13.0 | 0.00 | 0.00 | 0.00 | 83 | 946.4 |
| 20260903023159 | 73 | 51 | 7.0 | 16.0 | 0.00 | 0.00 | 0.00 | 83 | 946.8 |
| 20260903022658 | 74 | 55 | 7.0 | 15.0 | 0.00 | 0.00 | 0.00 | 83 | 946.4 |
| 20260903022157 | 74 | 52 | 6.0 | 14.0 | 0.00 | 0.00 | 0.00 | 82 | 946.5 |
| 20260903021655 | 74 | 52 | 5.0 | 16.0 | 0.00 | 0.00 | 0.00 | 82 | 946.3 |
| 20260903021154 | 74 | 47 | 7.0 | 16.0 | 0.00 | 0.00 | 0.00 | 82 | 946.5 |
| 20260903020653 | 74 | 45 | 7.0 | 15.0 | 0.00 | 0.00 | 0.00 | 82 | 946.5 |
| 20260903020152 | 75 | 61 | 8.0 | 18.0 | 0.00 | 0.00 | 0.00 | 82 | 946.5 |
| 20260903015651 | 75 | 49 | 6.0 | 18.0 | 0.00 | 0.00 | 0.00 | 83 | 946.4 |
| 20260903014634 | 75 | 52 | 7.0 | 13.0 | 0.00 | 0.00 | 0.00 | 82 | 946.4 |
| 20260903014132 | 75 | 45 | 5.0 | 14.0 | 0.00 | 0.00 | 0.00 | 82 | 946.2 |
| 20260903013115 | 76 | 55 | 6.0 | 14.0 | 0.00 | 0.00 | 0.00 | 82 | 946.6 |
| 20260903012614 | 76 | 46 | 6.0 | 14.0 | 0.00 | 0.00 | 0.00 | 80 | 946.1 |
| 20260903011557 | 76 | 55 | 6.0 | 18.0 | 0.00 | 0.00 | 0.00 | 81 | 946.4 |
| 20260903011056 | 76 | 47 | 7.0 | 18.0 | 0.00 | 0.00 | 0.00 | 80 | 946.5 |
| 20260903010555 | 76 | 47 | 7.0 | 18.0 | 0.00 | 0.00 | 0.00 | 80 | 946.2 |
| 20260903010054 | 77 | 49 | 7.0 | 18.0 | 0.00 | 0.00 | 0.00 | 80 | 946.6 |
| 20260903005553 | 77 | 53 | 5.0 | 13.0 | 0.00 | 0.00 | 0.00 | 81 | 946.7 |
| 20260903005052 | 77 | 54 | 6.0 | 13.0 | 0.00 | 0.00 | 0.00 | 79 | 946.6 |
| 20260903004551 | 77 | 56 | 7.0 | 18.0 | 0.00 | 0.00 | 0.00 | 79 | 946.5 |
| 20260903004050 | 77 | 50 | 6.0 | 18.0 | 0.00 | 0.00 | 0.00 | 81 | 946.7 |
| 20260903003549 | 77 | 43 | 6.0 | 16.0 | 0.00 | 0.00 | 0.00 | 80 | 946.4 |
| 20260903003048 | 77 | 44 | 6.0 | 15.0 | 0.00 | 0.00 | 0.00 | 80 | 946.7 |
| 20260903002547 | 77 | 49 | 6.0 | 16.0 | 0.00 | 0.00 | 0.00 | 80 | 946.5 |
| 20260903002046 | 77 | 50 | 6.0 | 16.0 | 0.00 | 0.00 | 0.00 | 81 | 946.6 |
| 20260903001544 | 77 | 42 | 6.0 | 16.0 | 0.00 | 0.00 | 0.00 | 81 | 946.5 |
| 20260903001043 | 77 | 46 | 8.0 | 20.0 | 0.00 | 0.00 | 0.00 | 79 | 946.6 |
| 20260903000542 | 77 | 50 | 8.0 | 20.0 | 0.00 | 0.00 | 0.00 | 80 | 946.6 |
| 20260903000041 | 77 | 44 | 8.0 | 15.0 | 0.00 | 0.00 | 0.00 | 79 | 946.6 |
| 20260902235540 | 77 | 54 | 5.0 | 15.0 | 0.00 | 0.00 | 0.00 | 81 | 946.5 |
| 20260902235039 | 77 | 34 | 8.0 | 16.0 | 0.00 | 0.00 | 0.00 | 80 | 946.8 |
| 20260902234538 | 77 | 48 | 8.0 | 16.0 | 0.00 | 0.00 | 0.00 | 81 | 946.7 |
| 20260902233521 | 77 | 46 | 7.0 | 15.0 | 0.00 | 0.00 | 0.00 | 81 | 946.7 |
| 20260902233020 | 77 | 50 | 5.0 | 16.0 | 0.00 | 0.00 | 0.00 | 82 | 946.9 |
| 20260902232518 | 77 | 47 | 10.0 | 16.0 | 0.00 | 0.00 | 0.00 | 80 | 947.2 |
| 20260902232017 | 77 | 59 | 8.0 | 14.0 | 0.00 | 0.00 | 0.00 | 82 | 947.1 |
| 20260902231516 | 77 | 62 | 8.0 | 19.0 | 0.00 | 0.00 | 0.00 | 82 | 947.6 |
| 20260902231014 | 77 | 51 | 8.0 | 22.0 | 0.00 | 0.00 | 0.00 | 82 | 947.2 |
| 20260902225957 | 77 | 49 | 5.0 | 15.0 | 0.00 | 0.00 | 0.00 | 81 | 947.3 |
| 20260902224940 | 77 | 51 | 6.0 | 20.0 | 0.00 | 0.00 | 0.00 | 82 | 947.4 |
| 20260902224438 | 77 | 61 | 9.0 | 20.0 | 0.00 | 0.00 | 0.00 | 81 | 947.1 |
| 20260902223937 | 77 | 71 | 6.0 | 18.0 | 0.00 | 0.00 | 0.00 | 82 | 947.6 |
| 20260902222405 | 76 | 56 | 8.0 | 19.0 | 0.00 | 0.00 | 0.00 | 84 | 947.9 |
| 20260902221347 | 77 | 58 | 8.0 | 18.0 | 0.00 | 0.00 | 0.00 | 82 | 947.4 |
| 20260902220846 | 77 | 49 | 9.0 | 19.0 | 0.00 | 0.00 | 0.00 | 82 | 947.5 |
| 20260902215829 | 76 | 48 | 7.0 | 19.0 | 0.00 | 0.00 | 0.00 | 84 | 947.7 |
| 20260902215328 | 76 | 51 | 9.0 | 20.0 | 0.00 | 0.00 | 0.00 | 83 | 948.1 |
| 20260902214827 | 76 | 54 | 8.0 | 20.0 | 0.00 | 0.00 | 0.00 | 83 | 947.7 |
| 20260902214326 | 77 | 71 | 9.0 | 20.0 | 0.00 | 0.00 | 0.00 | 83 | 948.1 |
| 20260902213826 | 76 | 46 | 8.0 | 16.0 | 0.00 | 0.00 | 0.00 | 84 | 947.7 |
| 20260902213325 | 76 | 62 | 8.0 | 16.0 | 0.00 | 0.00 | 0.00 | 84 | 947.7 |
| 20260902212307 | 76 | 62 | 7.0 | 15.0 | 0.00 | 0.00 | 0.00 | 85 | 948.0 |
| 20260902211806 | 76 | 57 | 7.0 | 16.0 | 0.00 | 0.00 | 0.00 | 85 | 948.2 |
| 20260902211305 | 76 | 71 | 7.0 | 16.0 | 0.00 | 0.00 | 0.00 | 85 | 947.9 |
| 20260902210804 | 75 | 69 | 9.0 | 19.0 | 0.00 | 0.00 | 0.00 | 84 | 948.1 |
| 20260902210303 | 75 | 68 | 8.0 | 19.0 | 0.00 | 0.00 | 0.00 | 87 | 948.0 |
| 20260902205802 | 74 | 72 | 8.0 | 18.0 | 0.00 | 0.00 | 0.00 | 87 | 947.9 |
| 20260902204745 | 74 | 68 | 6.0 | 19.0 | 0.00 | 0.00 | 0.00 | 89 | 948.3 |
| 20260902204245 | 74 | 68 | 7.0 | 19.0 | 0.00 | 0.00 | 0.00 | 89 | 948.5 |
| 20260902203228 | 73 | 63 | 6.0 | 22.0 | 0.00 | 0.00 | 0.00 | 92 | 948.3 |
| 20260902202727 | 73 | 61 | 9.0 | 22.0 | 0.00 | 0.00 | 0.00 | 92 | 948.3 |
| 20260902202225 | 73 | 61 | 8.0 | 19.0 | 0.00 | 0.00 | 0.00 | 92 | 948.2 |
| 20260902201724 | 72 | 61 | 8.0 | 18.0 | 0.00 | 0.00 | 0.00 | 93 | 948.3 |
| 20260902201223 | 72 | 71 | 9.0 | 21.0 | 0.00 | 0.00 | 0.00 | 93 | 948.4 |
| 20260902200722 | 72 | 76 | 7.0 | 21.0 | 0.00 | 0.00 | 0.00 | 93 | 947.8 |
| 20260902195706 | 72 | 69 | 10.0 | 22.0 | 0.00 | 0.00 | 0.00 | 95 | 948.2 |
| 20260902195204 | 71 | 76 | 7.0 | 21.0 | 0.00 | 0.00 | 0.00 | 96 | 948.0 |
| 20260902194703 | 71 | 56 | 8.0 | 21.0 | 0.00 | 0.00 | 0.00 | 94 | 948.2 |
| 20260902194202 | 71 | 77 | 5.0 | 15.0 | 0.00 | 0.00 | 0.00 | 94 | 948.1 |
| 20260902193702 | 72 | 74 | 8.0 | 21.0 | 0.00 | 0.00 | 0.00 | 93 | 948.1 |
| 20260902192644 | 72 | 62 | 7.0 | 16.0 | 0.00 | 0.00 | 0.00 | 92 | 948.4 |
| 20260902192143 | 72 | 72 | 5.0 | 16.0 | 0.00 | 0.00 | 0.00 | 91 | 948.2 |
| 20260902191643 | 72 | 92 | 7.0 | 18.0 | 0.00 | 0.00 | 0.00 | 91 | 948.3 |
| 20260902191141 | 72 | 81 | 8.0 | 18.0 | 0.00 | 0.00 | 0.00 | 92 | 948.3 |
| 20260902190641 | 72 | 69 | 7.0 | 18.0 | 0.00 | 0.00 | 0.00 | 92 | 948.1 |
| 20260902190140 | 72 | 79 | 6.0 | 21.0 | 0.00 | 0.00 | 0.00 | 93 | 948.2 |
| 20260902185637 | 71 | 82 | 8.0 | 21.0 | 0.00 | 0.00 | 0.00 | 92 | 947.9 |
| 20260902184621 | 71 | 76 | 6.0 | 18.0 | 0.00 | 0.00 | 0.00 | 92 | 948.3 |
| 20260902183047 | 71 | 95 | 7.0 | 14.0 | 0.00 | 0.00 | 0.00 | 93 | 948.4 |
| 20260902182546 | 71 | 82 | 5.0 | 15.0 | 0.00 | 0.00 | 0.00 | 93 | 948.2 |
| 20260902182046 | 71 | 90 | 7.0 | 15.0 | 0.00 | 0.00 | 0.00 | 92 | 948.5 |
| 20260902181544 | 71 | 78 | 6.0 | 15.0 | 0.00 | 0.00 | 0.00 | 91 | 948.5 |
| 20260902181043 | 71 | 99 | 8.0 | 15.0 | 0.00 | 0.00 | 0.00 | 91 | 948.5 |
| 20260902175511 | 71 | 97 | 7.0 | 14.0 | 0.00 | 0.00 | 0.00 | 90 | 948.2 |
| 20260902175010 | 71 | 94 | 6.0 | 18.0 | 0.00 | 0.00 | 0.00 | 91 | 948.4 |
| 20260902173953 | 70 | 104 | 5.0 | 13.0 | 0.00 | 0.00 | 0.00 | 91 | 948.2 |
| 20260902173452 | 70 | 85 | 6.0 | 14.0 | 0.00 | 0.00 | 0.00 | 91 | 948.1 |
| 20260902172951 | 70 | 92 | 5.0 | 14.0 | 0.00 | 0.00 | 0.00 | 91 | 948.2 |
| 20260902172449 | 70 | 63 | 6.0 | 16.0 | 0.00 | 0.00 | 0.00 | 91 | 948.4 |
| 20260902171433 | 70 | 75 | 8.0 | 14.0 | 0.00 | 0.00 | 0.00 | 92 | 947.7 |
| 20260902170932 | 69 | 77 | 6.0 | 14.0 | 0.00 | 0.00 | 0.00 | 92 | 947.8 |
| 20260902170430 | 69 | 83 | 5.0 | 18.0 | 0.00 | 0.00 | 0.00 | 91 | 947.6 |
| 20260902165929 | 69 | 56 | 5.0 | 18.0 | 0.00 | 0.00 | 0.00 | 91 | 947.5 |
| 20260902165428 | 69 | 86 | 6.0 | 14.0 | 0.00 | 0.00 | 0.00 | 91 | 947.9 |
| 20260902164411 | 69 | 98 | 6.0 | 15.0 | 0.00 | 0.00 | 0.00 | 92 | 947.4 |
| 20260902163910 | 69 | 89 | 4.0 | 15.0 | 0.00 | 0.00 | 0.00 | 92 | 947.6 |
| 20260902163409 | 69 | 81 | 5.0 | 12.0 | 0.00 | 0.00 | 0.00 | 93 | 947.5 |
| 20260902162908 | 69 | 83 | 4.0 | 11.0 | 0.00 | 0.00 | 0.00 | 93 | 947.6 |
| 20260902161851 | 69 | 46 | 3.0 | 11.0 | 0.00 | 0.00 | 0.00 | 94 | 947.3 |
| 20260902160834 | 68 | 67 | 4.0 | 12.0 | 0.00 | 0.00 | 0.00 | 94 | 947.4 |
| 20260902160333 | 68 | 56 | 2.0 | 12.0 | 0.00 | 0.00 | 0.00 | 95 | 947.4 |
| 20260902155831 | 68 | 68 | 2.0 | 12.0 | 0.00 | 0.00 | 0.00 | 95 | 947.2 |
| 20260902155330 | 68 | 74 | 2.0 | 12.0 | 0.00 | 0.00 | 0.00 | 95 | 947.3 |
| 20260902154829 | 68 | 89 | 0.0 | 12.0 | 0.00 | 0.00 | 0.00 | 95 | 947.2 |
| 20260902154328 | 68 | 105 | 2.0 | 12.0 | 0.00 | 0.00 | 0.00 | 95 | 947.4 |
| 20260902153827 | 69 | 94 | 2.0 | 12.0 | 0.00 | 0.00 | 0.00 | 95 | 947.5 |
| 20260902153326 | 69 | 90 | 2.0 | 12.0 | 0.00 | 0.00 | 0.00 | 95 | 947.3 |
| 20260902152309 | 69 | 45 | 1.0 | 12.0 | 0.00 | 0.00 | 0.00 | 95 | 947.3 |
| 20260902151252 | 69 | 27 | 0.0 | 12.0 | 0.00 | 0.00 | 0.00 | 95 | 947.2 |
| 20260902150750 | 69 | 31 | 1.0 | 12.0 | 0.00 | 0.00 | 0.00 | 94 | 946.9 |
| 20260902150249 | 69 | 90 | 0.0 | 12.0 | 0.00 | 0.00 | 0.00 | 94 | 946.9 |
| 20260902145748 | 69 | 71 | 1.0 | 12.0 | 0.00 | 0.00 | 0.00 | 94 | 947.0 |
| 20260902145246 | 69 | 79 | 2.0 | 12.0 | 0.00 | 0.00 | 0.00 | 94 | 947.1 |
| 20260902144229 | 69 | 92 | 3.0 | 12.0 | 0.00 | 0.00 | 0.00 | 94 | 947.0 |
| 20260902143211 | 69 | 90 | 5.0 | 13.0 | 0.00 | 0.00 | 0.00 | 94 | 946.9 |
| 20260902142710 | 69 | 96 | 5.0 | 15.0 | 0.00 | 0.00 | 0.00 | 94 | 946.9 |
| 20260902142209 | 69 | 89 | 6.0 | 15.0 | 0.00 | 0.00 | 0.00 | 93 | 946.6 |
| 20260902141708 | 70 | 91 | 5.0 | 13.0 | 0.00 | 0.00 | 0.00 | 93 | 946.7 |
| 20260902141207 | 70 | 61 | 4.0 | 13.0 | 0.00 | 0.00 | 0.00 | 93 | 946.7 |
| 20260902140706 | 70 | 51 | 6.0 | 11.0 | 0.00 | 0.00 | 0.00 | 93 | 946.6 |
| 20260902140205 | 70 | 54 | 4.0 | 11.0 | 0.00 | 0.00 | 0.00 | 94 | 946.7 |
| 20260902135704 | 70 | 60 | 3.0 | 16.0 | 0.00 | 0.00 | 0.00 | 94 | 946.6 |
| 20260902135203 | 70 | 79 | 6.0 | 16.0 | 0.00 | 0.00 | 0.00 | 94 | 946.8 |
| 20260902134701 | 70 | 83 | 6.0 | 15.0 | 0.00 | 0.00 | 0.00 | 95 | 946.9 |
| 20260902134200 | 70 | 81 | 4.0 | 15.0 | 0.00 | 0.00 | 0.00 | 95 | 946.6 |
| 20260902133659 | 70 | 93 | 6.0 | 15.0 | 0.00 | 0.00 | 0.00 | 95 | 946.8 |
| 20260902133158 | 70 | 88 | 8.0 | 22.0 | 0.00 | 0.00 | 0.00 | 95 | 946.7 |
| 20260902132656 | 70 | 90 | 7.0 | 22.0 | 0.00 | 0.00 | 0.00 | 95 | 946.5 |
| 20260902132155 | 70 | 88 | 10.0 | 22.0 | 0.00 | 0.00 | 0.00 | 95 | 946.1 |
| 20260902131654 | 70 | 98 | 7.0 | 16.0 | 0.00 | 0.00 | 0.00 | 95 | 946.6 |
| 20260902131153 | 70 | 92 | 8.0 | 16.0 | 0.00 | 0.00 | 0.00 | 95 | 946.5 |
| 20260902130652 | 70 | 84 | 5.0 | 15.0 | 0.00 | 0.00 | 0.00 | 94 | 946.4 |
| 20260902130151 | 70 | 77 | 5.0 | 18.0 | 0.00 | 0.00 | 0.00 | 94 | 946.4 |
| 20260902125133 | 70 | 81 | 5.0 | 13.0 | 0.00 | 0.00 | 0.00 | 93 | 946.4 |
| 20260902124632 | 70 | 75 | 5.0 | 14.0 | 0.00 | 0.00 | 0.00 | 93 | 946.5 |
| 20260902124131 | 70 | 72 | 4.0 | 14.0 | 0.00 | 0.00 | 0.00 | 92 | 946.7 |
| 20260902123114 | 70 | 54 | 6.0 | 15.0 | 0.00 | 0.00 | 0.00 | 92 | 946.4 |
| 20260902115952 | 71 | 68 | 8.0 | 20.0 | 0.00 | 0.00 | 0.00 | 91 | 946.7 |
| 20260902115451 | 71 | 61 | 7.0 | 20.0 | 0.00 | 0.00 | 0.00 | 92 | 946.1 |
| 20260902114950 | 71 | 45 | 7.0 | 14.0 | 0.00 | 0.00 | 0.00 | 93 | 946.7 |
| 20260902113933 | 71 | 60 | 7.0 | 19.0 | 0.00 | 0.00 | 0.00 | 93 | 946.4 |
| 20260902113432 | 71 | 58 | 6.0 | 18.0 | 0.00 | 0.00 | 0.00 | 94 | 946.5 |
| 20260902112931 | 71 | 60 | 6.0 | 15.0 | 0.00 | 0.00 | 0.00 | 94 | 946.7 |
| 20260902112429 | 71 | 60 | 7.0 | 15.0 | 0.00 | 0.00 | 0.00 | 95 | 946.8 |
| 20260902111928 | 70 | 46 | 6.0 | 13.0 | 0.00 | 0.00 | 0.00 | 95 | 947.0 |
| 20260902111427 | 70 | 57 | 6.0 | 14.0 | 0.00 | 0.00 | 0.00 | 96 | 946.8 |
| 20260902110926 | 70 | 58 | 6.0 | 14.0 | 0.00 | 0.00 | 0.00 | 96 | 947.0 |
| 20260902110425 | 70 | 57 | 5.0 | 15.0 | 0.00 | 0.00 | 0.00 | 96 | 946.8 |
| 20260902105924 | 70 | 60 | 7.0 | 20.0 | 0.00 | 0.00 | 0.00 | 97 | 946.8 |
| 20260902105423 | 70 | 53 | 8.0 | 20.0 | 0.00 | 0.00 | 0.00 | 97 | 947.1 |